This is the latest recevied weather packets stored in our database for station/object K5SVV. If no packets are shown the sender has not sent any weather packets the latest 10 day(s).
| Time | Temp. | Humidity | Pressure | Rain* | Wind** | Luminosity | Snow |
|---|---|---|---|---|---|---|---|
| 1777494595 | 15.56° C | 99% | 1011.8 hPa | 0 mm | - | 191 W/m² | - |
| 1777494292 | 15.56° C | 99% | 1011.9 hPa | 0 mm | - | 355 W/m² | - |
| 1777493988 | 15.56° C | 99% | 1011.9 hPa | 0 mm | - | 488 W/m² | - |
| 1777493687 | 15° C | 99% | 1012.4 hPa | 0 mm | - | 251 W/m² | - |
| 1777493384 | 15.56° C | 99% | 1012.6 hPa | 0 mm | - | 201 W/m² | - |
| 1777493080 | 15° C | 99% | 1012.3 hPa | 0 mm | - | 233 W/m² | - |
| 1777492777 | 15° C | 99% | 1012.8 hPa | 0 mm | - | 147 W/m² | - |
| 1777492473 | 15° C | 99% | 1013.8 hPa | 0 mm | - | 79 W/m² | - |
| 1777492170 | 15° C | 98% | 1013.9 hPa | 0 mm | - | 77 W/m² | - |
| 1777491867 | 15° C | 98% | 1013.4 hPa | 0 mm | - | 87 W/m² | - |
| 1777491563 | 15° C | 98% | 1013.6 hPa | 0 mm | - | 131 W/m² | - |
| 1777491261 | 14.44° C | 98% | 1013.6 hPa | 0 mm | - | 91 W/m² | - |
| 1777490957 | 14.44° C | 98% | 1013.2 hPa | 0 mm | - | 100 W/m² | - |
| 1777490652 | 15° C | 98% | 1013 hPa | 1.27 mm | - | 128 W/m² | - |
| 1777490349 | 14.44° C | 98% | 1012.7 hPa | 16.26 mm | - | 314 W/m² | - |
| 1777490047 | 13.89° C | 98% | 1013.1 hPa | 36.58 mm | - | 146 W/m² | - |
| 1777489744 | 13.89° C | 97% | 1012.4 hPa | 22.86 mm | - | 130 W/m² | - |
| 1777489441 | 13.89° C | 97% | 1013.4 hPa | 14.99 mm | - | 43 W/m² | - |
| 1777489137 | 13.89° C | 96% | 1013.8 hPa | 42.67 mm | - | 29 W/m² | - |
| 1777488835 | 14.44° C | 95% | 1013.4 hPa | 47.5 mm | - | 16 W/m² | - |
| 1777488532 | 14.44° C | 93% | 1014.2 hPa | 36.58 mm | - | 14 W/m² | - |
| 1777488229 | 15° C | 92% | 1015.4 hPa | 14.99 mm | - | 12 W/m² | - |
| 1777487928 | 15.56° C | 91% | 1014 hPa | 0 mm | - | 9 W/m² | - |
| 1777487625 | 15.56° C | 90% | 1013.4 hPa | 0 mm | - | 12 W/m² | - |
| 1777487322 | 15.56° C | 89% | 1013.9 hPa | 0 mm | - | 26 W/m² | - |
* Rain latest hour (hover to see other rain measurements)
** Current wind speed in m/s (hover to see current wind gust speed)